View from above orbital plane
|
View from above satellite
|
Ground track
|
The orbit data is extracted from the following two-line orbital elements,
1 45873U 20046A 21057.80660226 0.00002800 00000-0 23097-3 0 01
2 45873 53.9748 24.6923 0009390 158.6073 201.3926 14.98536710 09
Epoch (UTC): | 26 February 2021 19:21:30 |
Eccentricity: | 0.0009390 |
inclination: | 53.9748° |
perigee height: | 565 km |
apogee height: | 578 km |
right ascension of ascending node: | 24.6923° |
argument of perigee: | 158.6073° |
revolutions per day: | 14.98536710 |
mean anomaly at epoch: | 201.3926° |
orbit number at epoch: | 0 |
The dashed part of the orbit path shows where the satellite is in the earth's shadow,
|
|